sat.trackr.live / text

‹ back to catalog

STARLINK-37393

NORAD 68776 · 2026-086L

PAYLOAD ACTIVE UNKNOWN

§ Identity

Operator
Country
US
Launch date
2026-04-19
Launch site
AFWTR
Launch vehicle
Mass (kg)
RCS (m²)

Purposes: comms

External: N2YO · Heavens-Above · Gunter

§ Orbital elements

Epoch: 2026-09-18T20:38:29.863104Z

Period
93.91 min
Inclination
97.2846°
Eccentricity
0.0001334
Mean motion
15.33443124 rev/d
Perigee alt
464.6 km
Apogee alt
466.5 km
Semi-major
6,843.7 km
B*
3.6791e-4
RAAN
297.3130°
Arg perigee
92.0665°
Mean anomaly
268.0730°
Rev number
2,343

§ Raw data

STARLINK-373931 68776U 26086L   26261.86006786  .00011820  00000+0  36791-3 0  99942 68776  97.2846 297.3130 0001334  92.0665 268.0730 15.33443124 23434

JSON: /api/v1/satellites/68776 · /tle

For live sub-satellite position, see the globe view (requires WebGL).

§ Visibility from observer

Set your observer location to see the next 7 days of passes ≥ 10°. The values pass through the URL so the page stays shareable.

No JS? Fill the form by hand. The geolocation button needs JavaScript.